When you browse on this site, cookies collect data to enhance your experience and personalize the content and advertising you see.
Visit our Privacy Policy to learn more. By continuing to use the site, you agree to this use of cookies and data.
  • în România
  • Lista ţărilor
  • Pe 7 zile
  • Temperatura apei
  • Hartă satelitară
  • Meteo pe hartă
  • Widget-uri
  • user-avatar
    Intrare

    Meteo pe oră la Carryduff

    Astăzi, 18 Ianuarie, Vineri

    Timp Temperatura Precipitaţii Vânt Presiune Umiditate
    00:00 +2°C° 0 mm 3 m/s 762 mmHg 72%
    01:00 +2°C° 0 mm 3 m/s 761 mmHg 72%
    02:00 +1°C° 0 mm 4 m/s 761 mmHg 72%
    03:00 +1°C° 0 mm 4 m/s 760 mmHg 72%
    04:00 +1°C° 0 mm 4 m/s 760 mmHg 70%
    05:00 +2°C° 0 mm 5 m/s 759 mmHg 69%
    06:00 +2°C° 0 mm 6 m/s 759 mmHg 67%
    07:00 +2°C° 0.1 mm 6 m/s 758 mmHg 68%
    08:00 +3°C° 0.1 mm 7 m/s 758 mmHg 70%
    09:00 +3°C° 0.1 mm 7 m/s 757 mmHg 71%
    10:00 +2°C° 0.7 mm 8 m/s 757 mmHg 75%
    11:00 +4°C° 0.7 mm 8 m/s 757 mmHg 79%
    12:00 +3°C° 0.7 mm 9 m/s 756 mmHg 82%
    13:00 +3°C° 0.8 mm 9 m/s 756 mmHg 85%
    14:00 +3°C° 0.8 mm 9 m/s 755 mmHg 87%
    15:00 +3°C° 0.8 mm 9 m/s 755 mmHg 89%
    16:00 +3°C° 1 mm 9 m/s 755 mmHg 90%
    17:00 +4°C° 1 mm 8 m/s 754 mmHg 91%
    18:00 +5°C° 1 mm 8 m/s 754 mmHg 93%
    19:00 +5°C° 0.6 mm 7 m/s 754 mmHg 93%
    20:00 +5°C° 0.6 mm 6 m/s 754 mmHg 93%
    21:00 +6°C° 0.6 mm 5 m/s 754 mmHg 93%
    22:00 +6°C° 0.3 mm 5 m/s 753 mmHg 92%
    23:00 +6°C° 0.3 mm 5 m/s 753 mmHg 92%

    Mâine, 19 Ianuarie, Sâmbătă

    Timp Temperatura Precipitaţii Vânt Presiune Umiditate
    00:00 +5°C° 0.3 mm 4 m/s 753 mmHg 92%
    01:00 +5°C° 0.1 mm 4 m/s 753 mmHg 93%
    02:00 +5°C° 0.1 mm 4 m/s 752 mmHg 93%
    03:00 +5°C° 0.1 mm 4 m/s 752 mmHg 93%
    04:00 +5°C° 0 mm 4 m/s 752 mmHg 94%
    05:00 +5°C° 0 mm 4 m/s 752 mmHg 94%
    06:00 +5°C° 0 mm 4 m/s 752 mmHg 94%
    07:00 +5°C° 0 mm 4 m/s 752 mmHg 94%
    08:00 +5°C° 0 mm 4 m/s 752 mmHg 94%
    09:00 +5°C° 0 mm 3 m/s 752 mmHg 95%
    10:00 +7°C° 0.1 mm 3 m/s 752 mmHg 93%
    11:00 +7°C° 0.1 mm 3 m/s 752 mmHg 91%
    12:00 +8°C° 0.1 mm 2 m/s 752 mmHg 90%
    13:00 +8°C° 0.1 mm 2 m/s 752 mmHg 89%
    14:00 +8°C° 0.1 mm 2 m/s 751 mmHg 89%
    15:00 +8°C° 0.1 mm 2 m/s 751 mmHg 89%
    16:00 +8°C° 0.1 mm 2 m/s 752 mmHg 90%
    17:00 +7°C° 0.1 mm 2 m/s 752 mmHg 92%
    18:00 +7°C° 0.1 mm 3 m/s 752 mmHg 93%
    19:00 +7°C° 0 mm 3 m/s 753 mmHg 94%
    20:00 +5°C° 0 mm 3 m/s 753 mmHg 95%
    21:00 +5°C° 0 mm 3 m/s 753 mmHg 95%
    22:00 +5°C° 0 mm 3 m/s 754 mmHg 95%
    23:00 +5°C° 0 mm 3 m/s 754 mmHg 96%

    Poimâine, 20 Ianuarie, Duminică

    Timp Temperatura Precipitaţii Vânt Presiune Umiditate
    00:00 +5°C° 0 mm 3 m/s 755 mmHg 96%
    01:00 +5°C° 0 mm 3 m/s 755 mmHg 95%
    02:00 +5°C° 0 mm 3 m/s 756 mmHg 95%
    03:00 +6°C° 0 mm 2 m/s 756 mmHg 95%
    04:00 +6°C° 0 mm 2 m/s 757 mmHg 94%
    05:00 +6°C° 0 mm 2 m/s 757 mmHg 94%
    06:00 +6°C° 0 mm 2 m/s 758 mmHg 93%
    07:00 +5°C° 0 mm 2 m/s 758 mmHg 94%
    08:00 +5°C° 0 mm 2 m/s 759 mmHg 94%
    09:00 +6°C° 0 mm 1 m/s 760 mmHg 94%
    10:00 +6°C° 0 mm 1 m/s 761 mmHg 92%
    11:00 +7°C° 0 mm 1 m/s 761 mmHg 90%
    12:00 +7°C° 0 mm 1 m/s 762 mmHg 88%
    13:00 +7°C° 0 mm 2 m/s 762 mmHg 87%
    14:00 +7°C° 0 mm 2 m/s 762 mmHg 85%
    15:00 +7°C° 0 mm 3 m/s 763 mmHg 84%
    16:00 +5°C° 0 mm 3 m/s 763 mmHg 84%
    17:00 +4°C° 0 mm 3 m/s 764 mmHg 85%
    18:00 +3°C° 0 mm 3 m/s 765 mmHg 86%
    19:00 +3°C° 0 mm 3 m/s 765 mmHg 87%
    20:00 +4°C° 0 mm 3 m/s 766 mmHg 88%
    21:00 +5°C° 0 mm 2 m/s 767 mmHg 89%
    22:00 +5°C° 0 mm 2 m/s 767 mmHg 89%
    23:00 +4°C° 0 mm 3 m/s 767 mmHg 90%

    21 Ianuarie, Luni

    Timp Temperatura Precipitaţii Vânt Presiune Umiditate
    00:00 +4°C° 0 mm 3 m/s 768 mmHg 90%
    01:00 +4°C° 0 mm 3 m/s 768 mmHg 89%
    02:00 +3°C° 0 mm 3 m/s 768 mmHg 88%
    03:00 +3°C° 0 mm 4 m/s 768 mmHg 87%
    04:00 +3°C° 0 mm 4 m/s 769 mmHg 87%
    05:00 +2°C° 0 mm 3 m/s 769 mmHg 87%
    06:00 +2°C° 0 mm 3 m/s 769 mmHg 87%
    07:00 +2°C° 0 mm 3 m/s 769 mmHg 86%
    08:00 +3°C° 0 mm 2 m/s 769 mmHg 86%
    09:00 +3°C° 0 mm 2 m/s 769 mmHg 85%
    10:00 +4°C° 0 mm 2 m/s 769 mmHg 80%
    11:00 +5°C° 0 mm 2 m/s 769 mmHg 76%
    12:00 +5°C° 0 mm 3 m/s 768 mmHg 71%
    13:00 +5°C° 0 mm 4 m/s 767 mmHg 72%
    14:00 +5°C° 0 mm 5 m/s 767 mmHg 73%
    15:00 +4°C° 0 mm 6 m/s 766 mmHg 73%
    16:00 +4°C° 0 mm 7 m/s 765 mmHg 75%
    17:00 +4°C° 0 mm 7 m/s 764 mmHg 77%
    18:00 +5°C° 0 mm 8 m/s 763 mmHg 78%
    19:00 +5°C° 0.1 mm 9 m/s 761 mmHg 80%
    20:00 +4°C° 0.1 mm 11 m/s 760 mmHg 81%
    21:00 +5°C° 0.1 mm 12 m/s 758 mmHg 82%
    22:00 +6°C° 2 mm 11 m/s 757 mmHg 81%
    23:00 +4°C° 2 mm 11 m/s 756 mmHg 80%

    22 Ianuarie, Marţi

    Timp Temperatura Precipitaţii Vânt Presiune Umiditate
    00:00 +4°C° 2 mm 11 m/s 755 mmHg 79%
    01:00 +3°C° 0.1 mm 10 m/s 755 mmHg 78%
    02:00 +2°C° 0.1 mm 10 m/s 755 mmHg 77%
    03:00 +1°C° 0.1 mm 9 m/s 755 mmHg 75%
    04:00 0°C° 0 mm 9 m/s 754 mmHg 74%
    05:00 0°C° 0 mm 8 m/s 754 mmHg 73%
    06:00 0°C° 0 mm 8 m/s 754 mmHg 72%
    07:00 0°C° 0.1 mm 8 m/s 753 mmHg 73%
    08:00 0°C° 0.1 mm 8 m/s 753 mmHg 74%
    09:00 0°C° 0.1 mm 8 m/s 753 mmHg 75%
    10:00 +1°C° 0 mm 9 m/s 752 mmHg 71%
    11:00 +1°C° 0 mm 10 m/s 752 mmHg 68%
    12:00 +2°C° 0 mm 10 m/s 752 mmHg 64%
    13:00 +1°C° 0.1 mm 10 m/s 751 mmHg 66%
    14:00 +1°C° 0.1 mm 10 m/s 751 mmHg 69%
    15:00 +1°C° 0.1 mm 10 m/s 750 mmHg 71%
    16:00 0°C° 0 mm 9 m/s 750 mmHg 72%
    17:00 0°C° 0 mm 9 m/s 750 mmHg 73%
    18:00 -1°C° 0 mm 8 m/s 750 mmHg 74%
    19:00 0°C° 0 mm 8 m/s 750 mmHg 74%
    20:00 0°C° 0 mm 8 m/s 750 mmHg 75%
    21:00 0°C° 0 mm 8 m/s 750 mmHg 76%
    22:00 0°C° 0 mm 8 m/s 749 mmHg 77%
    23:00 0°C° 0 mm 7 m/s 749 mmHg 78%

    23 Ianuarie, Miercuri

    Timp Temperatura Precipitaţii Vânt Presiune Umiditate
    00:00 -1°C° 0 mm 7 m/s 748 mmHg 78%
    01:00 0°C° 0.1 mm 7 m/s 748 mmHg 79%
    02:00 0°C° 0.1 mm 7 m/s 747 mmHg 79%
    03:00 0°C° 0.1 mm 7 m/s 747 mmHg 79%
    04:00 0°C° 0.1 mm 7 m/s 747 mmHg 79%
    05:00 -1°C° 0.1 mm 7 m/s 746 mmHg 78%
    06:00 -1°C° 0.1 mm 7 m/s 746 mmHg 77%
    07:00 0°C° 0 mm 8 m/s 746 mmHg 76%
    08:00 0°C° 0 mm 9 m/s 746 mmHg 75%
    09:00 0°C° 0 mm 9 m/s 746 mmHg 74%
    10:00 +1°C° 0.1 mm 10 m/s 745 mmHg 72%
    11:00 +2°C° 0.1 mm 11 m/s 745 mmHg 69%
    12:00 +2°C° 0.1 mm 11 m/s 744 mmHg 67%
    13:00 +2°C° 0.2 mm 11 m/s 744 mmHg 67%
    14:00 +2°C° 0.2 mm 11 m/s 745 mmHg 66%
    15:00 +2°C° 0.2 mm 11 m/s 745 mmHg 66%
    16:00 +1°C° 0 mm 11 m/s 746 mmHg 68%
    17:00 -1°C° 0 mm 11 m/s 748 mmHg 70%
    18:00 -2°C° 0 mm 10 m/s 749 mmHg 71%
    19:00 -1°C° 0 mm 9 m/s 750 mmHg 71%
    20:00 -1°C° 0 mm 8 m/s 750 mmHg 71%
    21:00 -1°C° 0 mm 8 m/s 751 mmHg 70%
    22:00 0°C° 0 mm 8 m/s 751 mmHg 73%
    23:00 +1°C° 0 mm 9 m/s 751 mmHg 75%
    Arată mai mult